FW0380 Weather Reports


Display with metric or nautical units.
time (UTC)temp
F
wind
direction
speed
MPH
gust
MPH
rain 1hr
in
rain 24hr
in
rain mn
in
humidity
%
barometer
mb
20260510152830 69 260 2.0 10.0 0.00 0.00 0.00 69 1014.8
20260510152604 69 355 2.0 10.0 0.00 0.00 0.00 70 1014.7
20260510151830 68 229 3.0 10.0 0.00 0.00 0.00 71 1014.8
20260510151329 68 324 2.0 10.0 0.00 0.00 0.00 70 1014.7
20260510150830 67 238 2.0 5.0 0.00 0.00 0.00 75 1014.6
20260510150329 66 196 1.0 5.0 0.00 0.00 0.00 75 1014.6
20260510145329 65 292 1.0 4.0 0.00 0.00 0.00 77 1014.6
20260510144832 65 9 1.0 3.0 0.00 0.00 0.00 77 1014.5
20260510144605 64 274 1.0 3.0 0.00 0.00 0.00 79 1014.6
20260510143829 64 241 1.0 3.0 0.00 0.00 0.00 82 1014.7
20260510143331 63 252 2.0 4.0 0.00 0.00 0.00 84 1014.7
20260510142829 62 9 2.0 4.0 0.00 0.00 0.00 86 1014.7
20260510142329 62 168 1.0 4.0 0.00 0.00 0.00 87 1014.7
20260510141831 61 161 1.0 4.0 0.00 0.00 0.00 88 1014.7
20260510141328 60 217 1.0 3.0 0.00 0.00 0.00 90 1014.8
20260510140830 60 153 1.0 3.0 0.00 0.00 0.00 91 1014.8
20260510140328 59 298 0.0 3.0 0.00 0.00 0.00 92 1014.7
20260510135826 59 239 0.0 3.0 0.00 0.00 0.00 93 1014.8
20260510135345 57 203 0.0 0.0 0.00 0.00 0.00 94 1014.7
20260510135336 58 327 1.0 3.0 0.00 0.00 0.00 94 1014.7
20260510135102 58 333 1.0 3.0 0.00 0.00 0.00 94 1014.7
20260510133821 57 210 0.0 0.0 0.00 0.00 0.00 94 1014.8
20260510133320 56 199 0.0 0.0 0.00 0.00 0.00 95 1014.7
20260510132818 56 290 0.0 0.0 0.00 0.00 0.00 95 1014.8
20260510132316 56 36 0.0 0.0 0.00 0.00 0.00 95 1014.8
20260510131819 55 35 0.0 0.0 0.00 0.00 0.00 95 1014.7
20260510131313 55 35 0.0 0.0 0.00 0.00 0.00 95 1014.6
20260510130813 54 28 0.0 0.0 0.00 0.00 0.00 95 1014.8
20260510130608 54 27 0.0 0.0 0.00 0.00 0.00 95 1014.9
20260510130328 54 28 0.0 0.0 0.00 0.00 0.00 95 1014.9
20260510125310 53 27 0.0 0.0 0.00 0.00 0.00 95 1014.8
20260510124809 53 27 0.0 0.0 0.00 0.00 0.00 94 1014.8
20260510124306 53 26 0.0 0.0 0.00 0.00 0.00 94 1014.8
20260510123808 53 26 0.0 0.0 0.00 0.00 0.00 95 1014.8
20260510123310 53 26 0.0 0.0 0.00 0.00 0.00 95 1014.8
20260510122806 52 26 0.0 0.0 0.00 0.00 0.00 95 1014.8
20260510122306 52 26 0.0 0.0 0.00 0.00 0.00 94 1014.9
20260510121804 52 26 0.0 0.0 0.00 0.00 0.00 94 1014.8
20260510121543 52 26 0.0 0.0 0.00 0.00 0.00 95 1014.8
20260510120804 52 26 0.0 3.0 0.00 0.00 0.00 95 1014.7
20260510120304 52 20 0.0 3.0 0.00 0.00 0.00 94 1014.6
20260510115804 51 17 1.0 4.0 0.00 0.00 0.00 95 1014.5
20260510115305 51 355 1.0 4.0 0.00 0.00 0.00 95 1014.4
20260510114802 51 351 1.0 4.0 0.00 0.00 0.00 94 1014.2
20260510114301 51 117 0.0 2.0 0.00 0.00 0.00 94 1014.0
20260510113802 51 117 0.0 2.0 0.00 0.00 0.00 95 1014.0
20260510113301 51 117 1.0 4.0 0.00 0.00 0.00 95 1014.0
20260510113034 50 117 2.0 6.0 0.00 0.00 0.00 94 1014.1
20260510112305 50 0 3.0 6.0 0.00 0.00 0.00 94 1014.0
20260510111802 50 343 2.0 6.0 0.00 0.00 0.00 94 1014.3
20260510111301 49 16 2.0 6.0 0.00 0.00 0.00 94 1014.2
20260510111038 49 355 1.0 3.0 0.00 0.00 0.00 94 1014.1
20260510110539 49 0 0.0 3.0 0.00 0.00 0.00 94 1013.7
20260510105801 49 0 0.0 3.0 0.00 0.00 0.00 94 1013.7
20260510105312 49 0 1.0 4.0 0.00 0.00 0.00 94 1013.6
20260510105306 49 0 0.0 3.0 0.00 0.00 0.00 94 1013.7
20260510104301 49 0 1.0 4.0 0.00 0.00 0.00 94 1013.5
20260510103802 49 9 1.0 5.0 0.00 0.00 0.00 94 1013.4
20260510103301 49 0 1.0 5.0 0.00 0.00 0.00 94 1013.4
20260510102815 49 355 0.0 0.0 0.00 0.00 0.00 94 1013.1
20260510102806 49 355 0.0 0.0 0.00 0.00 0.00 94 1013.4
20260510101802 49 355 0.0 0.0 0.00 0.00 0.00 94 1013.0
20260510101300 49 355 0.0 0.0 0.00 0.00 0.00 94 1013.1
20260510100801 49 355 0.0 0.0 0.00 0.00 0.00 94 1013.2
20260510100301 49 355 0.0 0.0 0.00 0.00 0.00 94 1013.2
20260510095802 49 355 0.0 0.0 0.00 0.00 0.00 94 1013.1
20260510095305 49 355 0.0 5.0 0.00 0.00 0.00 94 1012.9
20260510095036 49 355 0.0 5.0 0.00 0.00 0.00 94 1013.0
20260510094302 49 355 1.0 5.0 0.00 0.00 0.00 94 1012.9
20260510093801 49 355 2.0 5.0 0.00 0.00 0.00 94 1012.9
20260510093303 49 355 1.0 5.0 0.00 0.00 0.00 94 1012.8
20260510092802 49 0 1.0 5.0 0.00 0.00 0.00 94 1012.9
20260510092306 49 355 1.0 5.0 0.00 0.00 0.00 94 1012.8
20260510091802 49 22 2.0 6.0 0.00 0.00 0.00 94 1012.8
20260510091301 49 347 2.0 6.0 0.00 0.00 0.00 94 1012.9
20260510090803 49 344 2.0 6.0 0.00 0.00 0.00 94 1012.8
20260510090301 49 321 1.0 8.0 0.00 0.00 0.00 94 1013.0
20260510085802 49 84 2.0 8.0 0.00 0.00 0.00 94 1012.6
20260510085300 49 321 2.0 8.0 0.00 0.00 0.00 94 1013.3
20260510084755 49 15 3.0 8.0 0.00 0.00 0.00 94 1012.9
20260510084244 49 348 3.0 10.0 0.00 0.00 0.00 94 1012.7
20260510083741 48 315 3.0 10.0 0.00 0.00 0.00 93 1013.3
20260510083243 48 355 1.0 9.0 0.00 0.00 0.00 93 1013.1
20260510082740 48 355 0.0 0.0 0.00 0.00 0.00 93 1012.5
20260510082237 48 355 0.0 0.0 0.00 0.00 0.00 93 1012.5
20260510081737 48 355 0.0 0.0 0.00 0.00 0.00 93 1012.5
20260510081235 48 355 0.0 0.0 0.00 0.00 0.00 93 1012.3
20260510080736 49 355 0.0 0.0 0.00 0.00 0.00 93 1012.3
20260510080508 49 355 0.0 0.0 0.00 0.00 0.00 93 1012.3
20260510075731 49 187 0.0 0.0 0.00 0.00 0.00 93 1012.3
20260510075233 49 187 0.0 0.0 0.00 0.00 0.00 93 1012.3
20260510074730 49 187 0.0 0.0 0.00 0.00 0.00 93 1012.3
20260510074231 49 187 0.0 0.0 0.00 0.00 0.00 93 1012.3
20260510073732 49 187 0.0 0.0 0.00 0.00 0.00 93 1012.3
20260510073229 49 187 0.0 0.0 0.00 0.00 0.00 93 1012.2
20260510073006 49 187 0.0 0.0 0.00 0.00 0.00 93 1012.2
20260510072231 49 187 0.0 0.0 0.00 0.00 0.00 93 1012.2
20260510071731 49 187 0.0 0.0 0.00 0.00 0.00 93 1012.1
20260510071229 49 187 0.0 0.0 0.00 0.00 0.00 93 1012.0
20260510070732 49 187 0.0 0.0 0.00 0.00 0.00 93 1011.9
20260510070230 49 187 0.0 0.0 0.00 0.00 0.00 93 1011.7
20260510065730 49 187 0.0 0.0 0.00 0.00 0.00 93 1011.7
20260510065229 49 187 0.0 0.0 0.00 0.00 0.00 93 1011.8
20260510064730 49 187 0.0 0.0 0.00 0.00 0.00 93 1011.7
20260510064229 49 187 0.0 0.0 0.00 0.00 0.00 93 1011.8
20260510063729 49 187 0.0 0.0 0.00 0.00 0.00 93 1011.8
20260510063230 49 187 0.0 0.0 0.00 0.00 0.00 93 1011.9
20260510062730 49 187 0.0 0.0 0.00 0.00 0.00 93 1012.0
20260510062228 49 187 0.0 0.0 0.00 0.00 0.00 93 1012.0
20260510061726 49 187 0.0 0.0 0.00 0.00 0.00 93 1012.0
20260510061224 49 187 0.0 0.0 0.00 0.00 0.00 92 1012.0
20260510060726 49 187 0.0 0.0 0.00 0.00 0.00 92 1012.0
20260510060225 49 187 0.0 0.0 0.00 0.00 0.00 92 1012.0
20260510055723 49 187 0.0 0.0 0.00 0.00 0.00 92 1012.0
20260510055224 49 187 0.0 0.0 0.00 0.00 0.00 92 1012.1
20260510054721 49 187 0.0 0.0 0.00 0.00 0.00 92 1012.1
20260510054224 49 187 0.0 0.0 0.00 0.00 0.00 92 1012.2
20260510053719 49 187 0.0 0.0 0.00 0.00 0.00 92 1012.2
20260510053449 49 187 0.0 0.0 0.00 0.00 0.00 92 1012.2
20260510052717 49 187 0.0 0.0 0.00 0.00 0.00 92 1012.2
20260510052452 49 187 0.0 0.0 0.00 0.00 0.00 92 1012.3
20260510051718 49 187 0.0 0.0 0.00 0.00 0.00 92 1012.4
20260510051222 50 187 0.0 0.0 0.00 0.00 0.00 91 1012.4
20260510050717 50 187 0.0 0.0 0.00 0.00 0.00 91 1012.4
20260510050216 50 187 0.0 0.0 0.00 0.00 0.00 91 1012.5
20260510050008 50 187 0.0 0.0 0.00 0.00 0.00 91 1012.5
20260510050004 50 187 0.0 0.0 0.00 0.00 0.00 91 1012.4
20260510044717 50 187 0.0 0.0 0.00 0.00 0.00 91 1012.5
20260510044218 50 187 0.0 0.0 0.00 0.00 0.00 91 1012.6
20260510043749 50 187 0.0 0.0 0.00 0.00 0.00 91 1012.6
20260510043740 50 187 0.0 0.0 0.00 0.00 0.00 91 1012.6
20260510043223 50 187 0.0 0.0 0.00 0.00 0.00 91 1012.6
20260510042217 50 187 0.0 0.0 0.00 0.00 0.00 91 1012.6
20260510041716 50 187 0.0 0.0 0.00 0.00 0.00 91 1012.6
20260510041216 50 187 0.0 0.0 0.00 0.00 0.00 91 1012.7
20260510040737 50 187 0.0 0.0 0.00 0.00 0.00 91 1012.7
20260510040728 50 187 0.0 0.0 0.00 0.00 0.00 91 1012.7
20260510040451 50 187 0.0 0.0 0.00 0.00 0.00 91 1012.7
20260510035222 51 187 0.0 0.0 0.00 0.00 0.00 91 1012.6
20260510035216 50 187 0.0 0.0 0.00 0.00 0.00 91 1012.8
20260510034210 51 187 0.0 0.0 0.00 0.00 0.00 91 1012.5
20260510033708 51 187 0.0 0.0 0.00 0.00 0.00 91 1012.6
20260510033209 51 187 0.0 0.0 0.00 0.00 0.00 90 1012.3
20260510032708 51 187 0.0 0.0 0.00 0.00 0.00 90 1012.6
20260510032205 51 187 0.0 0.0 0.00 0.00 0.00 90 1012.4
20260510031938 51 187 0.0 0.0 0.00 0.00 0.00 89 1012.3
20260510031206 51 187 0.0 0.0 0.00 0.00 0.00 89 1012.3
20260510030704 51 187 0.0 0.0 0.00 0.00 0.00 89 1012.3
20260510030201 51 187 0.0 0.0 0.00 0.00 0.00 89 1012.2
20260510025702 51 187 0.0 0.0 0.00 0.00 0.00 89 1012.1
20260510025202 51 187 0.0 0.0 0.00 0.00 0.00 89 1012.1
20260510024701 51 187 0.0 0.0 0.00 0.00 0.00 89 1012.1
20260510024201 51 187 0.0 0.0 0.00 0.00 0.00 89 1012.0
20260510023701 52 187 0.0 0.0 0.00 0.00 0.00 89 1012.1
20260510023204 52 187 0.0 0.0 0.00 0.00 0.00 89 1012.1
20260510022701 52 187 0.0 0.0 0.00 0.00 0.00 89 1012.1
20260510022202 52 187 0.0 0.0 0.00 0.00 0.00 88 1012.2
20260510021926 52 187 0.0 0.0 0.00 0.00 0.00 88 1012.2
20260510021706 52 187 0.0 0.0 0.00 0.00 0.00 88 1012.2
20260510021202 52 187 0.0 0.0 0.00 0.00 0.00 88 1012.2
20260510020702 52 187 0.0 0.0 0.00 0.00 0.00 88 1012.1
20260510020203 52 187 0.0 0.0 0.00 0.00 0.00 88 1012.1
20260510015701 53 187 0.0 0.0 0.00 0.00 0.00 87 1012.1
20260510015204 53 187 0.0 0.0 0.00 0.00 0.00 87 1012.0
20260510014701 53 187 0.0 0.0 0.00 0.00 0.00 87 1012.0
20260510014202 53 187 0.0 0.0 0.00 0.00 0.00 87 1011.9
20260510013702 53 187 0.0 0.0 0.00 0.00 0.00 87 1011.9
20260510013201 53 187 0.0 0.0 0.00 0.00 0.00 86 1011.8
20260510012702 54 187 0.0 0.0 0.00 0.00 0.00 86 1011.9
20260510012206 54 187 0.0 0.0 0.00 0.00 0.00 86 1011.8
20260510011702 54 187 0.0 0.0 0.00 0.00 0.00 85 1011.8
20260510011431 54 187 0.0 0.0 0.00 0.00 0.00 85 1011.9
20260510010659 55 187 0.0 0.0 0.00 0.00 0.00 85 1011.8
20260510010157 55 187 0.0 0.0 0.00 0.00 0.00 84 1011.6
20260510005653 55 187 0.0 0.0 0.00 0.00 0.00 84 1011.6
20260510005151 55 187 0.0 0.0 0.00 0.00 0.00 84 1011.6
20260510004651 56 187 0.0 0.0 0.00 0.00 0.00 83 1011.6
20260510004153 56 187 0.0 0.0 0.00 0.00 0.00 83 1011.6
20260510003650 56 186 0.0 0.0 0.00 0.00 0.00 82 1011.6
20260510003147 56 186 0.0 0.0 0.00 0.00 0.00 82 1011.5
20260510002647 57 186 0.0 0.0 0.00 0.00 0.00 82 1011.5
20260510002149 57 186 0.0 0.0 0.00 0.00 0.00 82 1011.5
20260510001647 57 186 0.0 0.0 0.00 0.00 0.00 81 1011.6
20260510001143 58 186 0.0 0.0 0.00 0.00 0.00 81 1011.6
20260510000641 58 186 0.0 0.0 0.00 0.00 0.00 81 1011.5
20260510000140 58 349 0.0 0.0 0.00 0.00 0.00 81 1011.5
20260509235638 58 349 0.0 0.0 0.00 0.00 0.00 80 1011.5
20260509235136 58 349 0.0 0.0 0.00 0.00 0.00 80 1011.6
20260509234635 59 348 0.0 0.0 0.00 0.00 0.00 80 1011.6
20260509234411 59 348 0.0 1.0 0.00 0.00 0.00 80 1011.6
20260509233633 59 348 0.0 1.0 0.00 0.00 0.00 80 1011.5
20260509233131 59 349 0.0 2.0 0.00 0.00 0.00 80 1011.5
20260509232904 59 349 0.0 2.0 0.00 0.00 0.00 80 1011.5
20260509232123 59 347 0.0 1.0 0.00 0.00 0.00 80 1011.5
20260509231617 59 355 0.0 0.0 0.00 0.00 0.00 80 1011.5
20260509231112 59 355 0.0 0.0 0.00 0.00 0.00 80 1011.4
20260509230605 59 355 0.0 0.0 0.00 0.00 0.00 80 1011.4
20260509230353 59 331 0.0 0.0 0.00 0.00 0.00 80 1011.4
20260509230114 59 332 0.0 0.0 0.00 0.00 0.00 80 1011.3
20260509225101 59 333 0.0 0.0 0.00 0.00 0.00 80 1011.3
20260509224603 59 331 0.0 3.0 0.00 0.00 0.00 79 1011.3
20260509224102 59 321 0.0 3.0 0.00 0.00 0.00 79 1011.4
20260509223603 59 334 1.0 5.0 0.00 0.00 0.00 80 1011.4
20260509223101 59 333 1.0 5.0 0.00 0.00 0.00 80 1011.4
20260509222604 59 350 0.0 3.0 0.00 0.00 0.00 81 1011.5
20260509222102 59 355 0.0 3.0 0.00 0.00 0.00 81 1011.5
20260509221602 59 355 0.0 3.0 0.00 0.00 0.00 82 1011.5
20260509221101 59 355 0.0 3.0 0.00 0.00 0.00 82 1011.4
20260509220837 59 349 0.0 3.0 0.00 0.00 0.00 83 1011.4
20260509215603 59 355 1.0 3.0 0.00 0.00 0.00 82 1011.4
20260509215102 58 49 0.0 5.0 0.00 0.00 0.00 82 1011.6
20260509214601 58 341 1.0 5.0 0.00 0.00 0.00 81 1011.6
20260509214102 58 342 2.0 6.0 0.00 0.00 0.00 81 1011.5
20260509213601 58 5 2.0 6.0 0.00 0.00 0.00 81 1011.6
20260509213105 59 347 1.0 6.0 0.00 0.00 0.00 80 1011.6
20260509212601 59 5 1.0 6.0 0.00 0.00 0.00 81 1011.4
20260509212102 59 345 2.0 8.0 0.00 0.00 0.00 81 1011.5
20260509211602 59 355 3.0 8.0 0.00 0.00 0.00 80 1011.4
20260509211339 59 5 2.0 8.0 0.00 0.00 0.00 80 1011.4
20260509210602 59 343 2.0 5.0 0.00 0.00 0.00 80 1011.4
20260509205602 59 355 1.0 6.0 0.00 0.00 0.00 80 1011.3
20260509205101 59 355 1.0 9.0 0.00 0.00 0.00 80 1011.3
20260509204601 59 355 2.0 9.0 0.00 0.00 0.00 80 1011.3
20260509204101 59 349 3.0 9.0 0.00 0.00 0.00 79 1011.3
20260509203605 59 351 4.0 9.0 0.00 0.00 0.00 78 1011.5
20260509203103 59 53 3.0 9.0 0.00 0.00 0.00 79 1011.5
20260509202601 59 334 2.0 9.0 0.00 0.00 0.00 79 1011.5
20260509202350 59 350 4.0 9.0 0.00 0.00 0.00 77 1011.4
20260509202110 59 0 3.0 9.0 0.00 0.00 0.00 78 1011.4
20260509201100 59 336 3.0 10.0 0.00 0.00 0.00 78 1011.4
20260509200602 59 0 4.0 10.0 0.00 0.00 0.00 79 1011.5
20260509200341 59 9 5.0 10.0 0.00 0.00 0.00 78 1011.6
20260509195601 59 5 5.0 11.0 0.00 0.00 0.00 77 1011.6
20260509195101 59 346 4.0 11.0 0.00 0.00 0.00 78 1011.6
20260509194603 59 5 5.0 11.0 0.00 0.00 0.00 77 1011.4
20260509194103 59 334 4.0 11.0 0.00 0.00 0.00 78 1011.3
20260509193603 59 355 3.0 11.0 0.00 0.00 0.00 78 1011.5
20260509193101 59 355 5.0 11.0 0.00 0.00 0.00 78 1011.7
20260509192601 59 328 5.0 13.0 0.00 0.00 0.00 77 1011.7
20260509192103 59 26 6.0 13.0 0.00 0.00 0.00 77 1011.8
20260509191602 59 36 6.0 13.0 0.00 0.00 0.00 77 1011.8
20260509191103 59 355 6.0 13.0 0.00 0.00 0.00 78 1011.9
20260509190835 59 348 5.0 11.0 0.00 0.00 0.00 77 1011.8
20260509185601 59 21 5.0 11.0 0.00 0.00 0.00 77 1012.2
20260509185101 59 335 5.0 11.0 0.00 0.00 0.00 77 1012.4
20260509184602 59 355 5.0 10.0 0.00 0.00 0.00 77 1012.5
20260509184102 59 328 4.0 9.0 0.00 0.00 0.00 78 1012.4
20260509183601 59 17 5.0 10.0 0.00 0.00 0.00 79 1012.4
20260509183101 59 344 6.0 11.0 0.00 0.00 0.00 78 1012.5
20260509182601 60 343 5.0 11.0 0.00 0.00 0.00 78 1012.4
20260509182104 60 5 4.0 9.0 0.00 0.00 0.00 77 1012.3
20260509181601 60 5 4.0 9.0 0.00 0.00 0.00 78 1012.4
20260509181101 60 5 5.0 11.0 0.00 0.00 0.00 77 1012.5
20260509180601 61 340 5.0 13.0 0.00 0.00 0.00 76 1012.6
20260509180340 61 346 3.0 13.0 0.00 0.00 0.00 75 1012.7
20260509175603 61 325 4.0 10.0 0.00 0.00 0.00 73 1012.7
20260509175102 62 13 4.0 10.0 0.00 0.00 0.00 73 1012.6
20260509174602 62 0 3.0 9.0 0.00 0.00 0.00 72 1012.7
20260509174101 62 289 3.0 9.0 0.00 0.00 0.00 71 1012.6
20260509173603 62 22 2.0 7.0 0.00 0.00 0.00 70 1012.6
20260509173325 62 347 1.0 5.0 0.00 0.00 0.00 70 1012.6
20260509172548 62 261 1.0 5.0 0.00 0.00 0.00 70 1012.5
20260509172041 62 10 1.0 5.0 0.00 0.00 0.00 69 1012.5
20260509171818 62 312 2.0 5.0 0.00 0.00 0.00 68 1012.5
20260509171040 62 355 2.0 5.0 0.00 0.00 0.00 68 1012.5
20260509170537 62 296 2.0 8.0 0.00 0.00 0.00 67 1012.5
20260509170039 62 5 1.0 8.0 0.00 0.00 0.00 67 1012.5
20260509165553 62 0 2.0 8.0 0.00 0.00 0.00 68 1012.6
20260509165543 62 304 2.0 8.0 0.00 0.00 0.00 68 1012.5
20260509164534 62 315 1.0 4.0 0.00 0.00 0.00 69 1012.7
20260509164030 62 327 1.0 4.0 0.00 0.00 0.00 71 1012.7
20260509163530 62 300 1.0 4.0 0.00 0.00 0.00 72 1012.7
20260509163030 62 211 1.0 4.0 0.00 0.00 0.00 73 1012.6
20260509162803 62 282 0.0 2.0 0.00 0.00 0.00 73 1012.6
20260509162029 62 315 1.0 6.0 0.00 0.00 0.00 72 1012.5
20260509161529 62 301 2.0 6.0 0.00 0.00 0.00 72 1012.6
20260509161045 62 355 1.0 6.0 0.00 0.00 0.00 73 1012.7
20260509161036 62 304 2.0 6.0 0.00 0.00 0.00 72 1012.6
20260509160029 62 295 2.0 3.0 0.00 0.00 0.00 73 1012.9
20260509155532 62 263 2.0 4.0 0.00 0.00 0.00 74 1013.0
20260509155030 62 302 2.0 7.0 0.00 0.00 0.00 73 1013.1
20260509154529 62 301 2.0 7.0 0.00 0.00 0.00 72 1013.2
20260509154024 62 271 1.0 4.0 0.00 0.00 0.00 71 1013.3
20260509153516 63 297 1.0 4.0 0.00 0.00 0.00 70 1013.2
20260509153252 63 274 1.0 4.0 0.00 0.00 0.00 71 1013.4